Location: Conflandey
(47.7287°N, 6.0456°E)
Time: 03:51:09
(UTC+00:00)

NOSS 3-1 (A) - Pass Details

Date: 24 October 2021
Orbit: 721 x 1491 km, 63.4° (Epoch: 22 November)

Event Time Altitude Azimuth Distance (km) Brightness Sun altitude
Rises 17:47:54 0° 198° (SSW) 3,177 6.5 -13.5°
Reaches altitude 10° 17:50:13 10° 192° (SSW) 2,306 5.7 -13.9°
Maximum altitude 17:55:13 47° 119° (ESE) 1,111 3.5 -14.8°
Enters shadow 17:59:58 15° 51° (NE) 2,301 5.0 -15.6°
